Jackson, MI

3:31 AM EST on November 21, 2019 (GMT -0500)
Jackson County-Reynolds

Weather History for KJXN - May, 2019

Change the Weather History Date:

Tuesday, May 21, 2019

  Actual Average Record
Temperature  
Mean Temperature 49 °F 59 °F  
Max Temperature 60 °F 71 °F 93 °F (1977)
Min Temperature 37 °F 48 °F 33 °F (1954)
Degree Days  
Heating Degree Days 16 7  
Month to date heating degree days 221 201  
Since 1 July heating degree days 6618 6547  
Cooling Degree Days 0 1  
Month to date cooling degree days 1 14  
Year to date cooling degree days 1 20  
Moisture  
Dew Point 40 °F    
Average Humidity 74    
Maximum Humidity 100    
Minimum Humidity 47    
Precipitation  
Precipitation 0.00 in 0.12 in 2.66 in (2004)
Month to date precipitation 2.01 2.20  
Year to date precipitation 10.25 9.49  
Sea Level Pressure  
Sea Level Pressure 30.17 in    
Wind  
Wind Speed 7 mph (East)    
Max Wind Speed 16 mph    
Max Gust Speed 25 mph    
Visibility 10 miles    
Events      
T = Trace of Precipitation, MM = Missing Value Source: NWS Daily Summary

Daily Weather History Graph

Daily Weather History Graph

Search for Another Location

Airport or City:

Astronomy

May. 21, 2019 Rise Set
Actual Time 6:11 AM EDT 8:58 PM EDT
Civil Twilight 5:38 AM EDT 9:30 PM EDT
Nautical Twilight 4:57 AM EDT 10:12 PM EDT
Astronomical Twilight 4:10 AM EDT 11:00 PM EDT
Moon 11:54 PM EDT 8:25 AM EDT
Length of Visible Light 15h 52m
Length of Day
14h 46m
Waning Gibbous, 91% of the Moon is Illuminated
May 21
Waning Gibbous
May 26
Last Quarter
Jun 3
New
Jun 10
First Quarter
Jun 17
Full

Hourly Weather History & Observations

Time (EDT) Temp. Windchill Dew Point Humidity Pressure Visibility Wind Dir Wind Speed Gust Speed Precip Events Conditions
12:56 AM 39.9 °F 36.7 °F 39.0 °F 97% 30.16 in 10.0 mi SSW 4.6 mph - N/A   Clear
1:56 AM 39.9 °F - 39.0 °F 97% 30.15 in 10.0 mi Calm Calm - N/A   Clear
2:56 AM 37.9 °F 35.5 °F 37.9 °F 100% 30.16 in 10.0 mi SW 3.5 mph - N/A   Clear
3:56 AM 39.0 °F - 37.9 °F 96% 30.18 in 10.0 mi Calm Calm - N/A   Clear
4:25 AM 37.9 °F - 37.9 °F 100% 30.15 in 2.5 mi Calm Calm - N/A   Clear
4:33 AM 37.9 °F - 37.9 °F 100% 30.15 in 8.0 mi Calm Calm - N/A   Clear
4:56 AM 37.9 °F - 37.0 °F 97% 30.17 in 10.0 mi Calm Calm - N/A   Clear
5:56 AM 37.9 °F - 37.0 °F 97% 30.17 in 10.0 mi Calm Calm - N/A   Clear
6:56 AM 39.9 °F - 39.0 °F 97% 30.19 in 10.0 mi Calm Calm - N/A   Clear
7:56 AM 43.0 °F 39.5 °F 39.9 °F 89% 30.19 in 10.0 mi NE 5.8 mph - N/A   Clear
8:56 AM 46.0 °F - 43.0 °F 89% 30.22 in 10.0 mi Calm Calm - N/A   Clear
9:56 AM 50.0 °F - 43.0 °F 77% 30.19 in 10.0 mi East 8.1 mph - N/A   Clear
10:56 AM 52.0 °F - 41.0 °F 66% 30.19 in 10.0 mi East 8.1 mph - N/A   Clear
11:56 AM 54.0 °F - 39.9 °F 59% 30.19 in 10.0 mi ENE 10.4 mph - N/A   Clear
12:56 PM 55.9 °F - 41.0 °F 57% 30.20 in 10.0 mi East 9.2 mph - N/A   Clear
1:56 PM 57.0 °F - 39.9 °F 53% 30.19 in 10.0 mi ENE 11.5 mph 19.6 mph N/A   Clear
2:56 PM 57.9 °F - 39.9 °F 51% 30.21 in 10.0 mi ENE 10.4 mph 19.6 mph N/A   Clear
3:56 PM 57.9 °F - 39.9 °F 51% 30.19 in 10.0 mi ENE 8.1 mph 18.4 mph N/A   Scattered Clouds
4:56 PM 57.9 °F - 39.9 °F 51% 30.17 in 10.0 mi East 6.9 mph - N/A   Overcast
5:56 PM 57.9 °F - 39.0 °F 49% 30.17 in 10.0 mi East 11.5 mph 25.3 mph N/A   Overcast
6:56 PM 57.9 °F - 37.9 °F 47% 30.14 in 10.0 mi East 11.5 mph - N/A   Mostly Cloudy
7:56 PM 55.9 °F - 41.0 °F 57% 30.13 in 10.0 mi East 8.1 mph - N/A   Overcast
8:56 PM 55.9 °F - 42.1 °F 60% 30.14 in 10.0 mi East 8.1 mph - N/A   Overcast
9:56 PM 55.0 °F - 39.9 °F 57% 30.12 in 10.0 mi East 12.7 mph 20.7 mph N/A   Overcast
10:56 PM 53.1 °F - 39.9 °F 61% 30.12 in 10.0 mi East 10.4 mph 16.1 mph N/A   Clear
11:56 PM 53.1 °F - 39.9 °F 61% 30.11 in 10.0 mi East 10.4 mph - N/A   Partly Cloudy